Regional Weather Roundup
Issued by NWS

Home | Current Version | Previous Version | Text Only | Print | Product List | Glossary Off
Versions: 1 2 3 4 5 6 7 8 9 10 11 12 13 14 15 16 17 18 19 20 21 22 23 24 25 26 27 28 29 30 31 32 33 34 35 36 37 38 39 40 41 42 43 44 45 46 47 48 49 50

000
ASUS43 KTOP 272208
RWRKS

WEATHER ROUNDUP FOR KANSAS
NATIONAL WEATHER SERVICE GOODLAND KS
500 PM CDT THU AUG 27 2015

NOTE:  "FAIR" INDICATES FEW OR NO CLOUDS BELOW 12,000 FEET WITH NO
SIGNIFICANT WEATHER AND/OR OBSTRUCTIONS TO VISIBILITY.

KSZ001>006-013>018-027>032-041>047-272300-
NORTHWEST KANSAS

CITY           SKY/WX    TMP DP  RH WIND       PRES   REMARKS
GOODLAND       PTSUNNY   92  49  22 NW10      29.93F
HAYS           PTSUNNY   95  61  31 S25G37    29.82F HX  95
HILL CITY      FAIR      99  58  25 S18G28    29.81F HX  98
RUSSELL        FAIR      90  65  43 S32G40    29.84F
$$

KSZ061>065-074>080-084>089-272300-
SOUTHWEST KANSAS

CITY           SKY/WX    TMP DP  RH WIND       PRES   REMARKS
DODGE CITY     FAIR      97  51  21 S21G28    29.90F
ELKHART          N/A     95  53  24 SW13        N/A
GARDEN CITY    FAIR      91  59  33 S15       29.90F
GREAT BEND     FAIR      90  64  43 S31G37    29.88F
LIBERAL        FAIR      97  55  24 S22G28    29.93F HX  95
PRATT          FAIR      82  61  47 SE20G28   29.95F
$$

KSZ066>073-081>083-090>101-272300-
SOUTHEAST KANSAS

CITY           SKY/WX    TMP DP  RH WIND       PRES   REMARKS
CHANUTE        FAIR      77  69  76 E10G21    30.03F
COFFEYVILLE    FAIR      80  67  64 SE8       30.01F
HUTCHINSON     FAIR      88  66  48 S21G33    29.93F
MEDICINE LODGE   N/A     85  66  53 SE15G26   29.93F
NEWTON         FAIR      88  61  40 S21G29    29.99F
WICHITA INTL   PTSUNNY   89  64  43 S23G31    29.95F
WICHITA JABRA  FAIR      87  64  46 S20G25    29.96F
WICHITA MCCONL FAIR      89  63  42 SE18      29.96F
WINFIELD       FAIR      89  65  44 SE18G26   29.99F
$$

KSZ007>012-019>026-033>040-048>060-102>105-272300-
NORTHEAST KANSAS

CITY           SKY/WX    TMP DP  RH WIND       PRES   REMARKS
CONCORDIA      FAIR      86  65  49 S24G35    29.87F
EMPORIA        FAIR      75  66  73 SE15G23   30.01S
LAWRENCE       FAIR      78  67  68 SE12      30.00F
MANHATTAN      FAIR      90  62  39 S15G31    29.94F
MARYSVILLE     FAIR     N/A N/A N/A S13G23    29.93S
OLATHE IND     FAIR      73  68  84 S15G24    30.02F
OLATHE EXE     FAIR      69  67  93 S10       30.01F
SALINA         FAIR      88  64  44 S21G36    29.89F
TOPEKA BILLARD FAIR      77  66  68 S10G21    29.99F
TOPEKA FORBES  FAIR      77  65  66 SE15      29.99F
$$



USA.gov is the U.S. government's official web portal to all federal, state and local government web resources and services.